TimeMDT,TemperatureF,Dew PointF,Humidity,Sea Level PressureIn,VisibilityMPH,Wind Direction,Wind SpeedMPH,Gust SpeedMPH,PrecipitationIn,Events,Conditions,WindDirDegrees,DateUTC
12:15 AM,50.0,50.0,100,30.30,10.0,ESE,3.5,-,N/A,,Scattered Clouds,120,2013-09-09 06:15:00
12:35 AM,51.8,51.8,100,30.30,10.0,Calm,Calm,-,N/A,,Mostly Cloudy,0,2013-09-09 06:35:00
12:55 AM,50.0,50.0,100,30.30,10.0,Calm,Calm,-,N/A,,Mostly Cloudy,0,2013-09-09 06:55:00
1:15 AM,50.0,50.0,100,30.31,10.0,Calm,Calm,-,N/A,,Clear,0,2013-09-09 07:15:00
1:35 AM,50.0,50.0,100,30.31,7.0,Calm,Calm,-,N/A,,Scattered Clouds,0,2013-09-09 07:35:00
1:55 AM,50.0,50.0,100,30.30,10.0,SE,3.5,-,N/A,,Clear,130,2013-09-09 07:55:00
2:15 AM,50.0,50.0,100,30.30,10.0,ESE,4.6,-,N/A,,Clear,120,2013-09-09 08:15:00
2:35 AM,50.0,50.0,100,30.29,10.0,ESE,6.9,-,N/A,,Scattered Clouds,110,2013-09-09 08:35:00
2:55 AM,50.0,50.0,100,30.29,10.0,SSE,6.9,-,0.01,,Scattered Clouds,160,2013-09-09 08:55:00
3:15 AM,50.0,50.0,100,30.28,10.0,Calm,Calm,-,N/A,,Scattered Clouds,0,2013-09-09 09:15:00
3:35 AM,50.0,50.0,100,30.28,10.0,Calm,Calm,-,N/A,,Mostly Cloudy,0,2013-09-09 09:35:00
3:55 AM,50.0,50.0,100,30.28,10.0,ESE,4.6,-,N/A,,Mostly Cloudy,110,2013-09-09 09:55:00
4:15 AM,51.8,48.2,88,30.28,10.0,East,5.8,-,N/A,,Overcast,100,2013-09-09 10:15:00
4:35 AM,51.8,48.2,88,30.28,10.0,SE,3.5,-,N/A,,Mostly Cloudy,130,2013-09-09 10:35:00
4:55 AM,50.0,50.0,100,30.28,10.0,ESE,4.6,-,N/A,,Mostly Cloudy,110,2013-09-09 10:55:00
5:15 AM,50.0,50.0,100,30.28,10.0,Calm,Calm,-,N/A,,Overcast,0,2013-09-09 11:15:00
5:35 AM,50.0,50.0,100,30.28,10.0,West,4.6,-,N/A,Rain,Light Rain,270,2013-09-09 11:35:00
5:55 AM,51.8,50.0,94,30.28,10.0,Calm,Calm,-,N/A,,Light Drizzle,0,2013-09-09 11:55:00
6:15 AM,50.0,50.0,100,30.27,10.0,Calm,Calm,-,N/A,,Mostly Cloudy,0,2013-09-09 12:15:00
6:35 AM,51.8,48.2,88,30.28,10.0,East,5.8,-,N/A,,Scattered Clouds,100,2013-09-09 12:35:00
6:55 AM,51.8,48.2,88,30.28,10.0,East,3.5,-,N/A,,Scattered Clouds,80,2013-09-09 12:55:00
7:15 AM,51.8,48.2,88,30.28,10.0,Calm,Calm,-,N/A,,Mostly Cloudy,0,2013-09-09 13:15:00
7:35 AM,53.6,48.2,82,30.28,10.0,Calm,Calm,-,N/A,,Scattered Clouds,0,2013-09-09 13:35:00
7:55 AM,53.6,48.2,82,30.28,10.0,Calm,Calm,-,N/A,,Clear,0,2013-09-09 13:55:00
8:15 AM,53.6,50.0,88,30.28,10.0,Calm,Calm,-,N/A,,Scattered Clouds,0,2013-09-09 14:15:00
8:35 AM,51.8,50.0,94,30.28,10.0,Calm,Calm,-,N/A,,Mostly Cloudy,0,2013-09-09 14:35:00
8:55 AM,55.4,50.0,82,30.28,10.0,Calm,Calm,-,N/A,,Mostly Cloudy,0,2013-09-09 14:55:00
9:15 AM,55.4,51.8,88,30.28,10.0,Calm,Calm,-,N/A,,Overcast,0,2013-09-09 15:15:00
9:35 AM,55.4,50.0,82,30.28,10.0,West,6.9,-,N/A,,Overcast,260,2013-09-09 15:35:00
9:55 AM,55.4,48.2,77,30.29,10.0,WSW,4.6,-,N/A,,Light Drizzle,240,2013-09-09 15:55:00
10:15 AM,55.4,50.0,82,30.30,7.0,Calm,Calm,-,N/A,,Drizzle,0,2013-09-09 16:15:00
10:35 AM,55.4,50.0,82,30.30,10.0,Calm,Calm,-,N/A,,Overcast,0,2013-09-09 16:35:00
10:55 AM,55.4,50.0,82,30.30,10.0,West,3.5,-,N/A,,Overcast,260,2013-09-09 16:55:00
11:15 AM,55.4,51.8,88,30.30,10.0,WSW,3.5,-,N/A,Rain,Light Rain,240,2013-09-09 17:15:00
11:35 AM,55.4,50.0,82,30.30,10.0,West,5.8,-,N/A,,Overcast,260,2013-09-09 17:35:00
11:55 AM,55.4,50.0,82,30.30,7.0,West,5.8,-,N/A,Rain,Rain,260,2013-09-09 17:55:00
12:15 PM,55.4,50.0,82,30.30,10.0,Calm,Calm,-,N/A,Rain,Light Rain,0,2013-09-09 18:15:00
12:35 PM,57.2,50.0,77,30.29,10.0,East,4.6,-,N/A,Rain,Light Rain,90,2013-09-09 18:35:00
12:55 PM,57.2,50.0,77,30.28,10.0,East,5.8,-,N/A,,Overcast,90,2013-09-09 18:55:00
1:15 PM,59.0,46.4,63,30.26,10.0,Calm,Calm,-,N/A,,Overcast,0,2013-09-09 19:15:00
1:35 PM,60.8,46.4,59,30.26,10.0,Calm,Calm,-,N/A,,Overcast,0,2013-09-09 19:35:00
1:55 PM,62.6,50.0,63,30.25,10.0,Calm,Calm,-,N/A,,Overcast,0,2013-09-09 19:55:00
2:15 PM,60.8,50.0,68,30.25,10.0,West,6.9,-,N/A,,Overcast,260,2013-09-09 20:15:00
2:35 PM,60.8,48.2,63,30.25,10.0,WSW,5.8,-,N/A,Rain-Thunderstorm,Light Thunderstorms and Rain,250,2013-09-09 20:35:00
2:55 PM,55.4,46.4,72,30.26,5.0,NW,3.5,17.3,0.01,Rain-Thunderstorm,Light Thunderstorms and Rain,320,2013-09-09 20:55:00
3:15 PM,55.4,51.8,88,30.24,10.0,Calm,Calm,-,N/A,,Overcast,0,2013-09-09 21:15:00
3:35 PM,57.2,48.2,72,30.23,10.0,Calm,Calm,-,N/A,,Overcast,0,2013-09-09 21:35:00
3:55 PM,60.8,50.0,68,30.22,10.0,Calm,Calm,-,N/A,,Overcast,0,2013-09-09 21:55:00
4:15 PM,62.6,50.0,63,30.21,10.0,Calm,Calm,-,N/A,Thunderstorm,Thunderstorm,0,2013-09-09 22:15:00
4:35 PM,60.8,51.8,72,30.21,10.0,West,8.1,-,N/A,,Mostly Cloudy,270,2013-09-09 22:35:00
4:55 PM,59.0,53.6,82,30.21,10.0,West,11.5,-,N/A,,Scattered Clouds,260,2013-09-09 22:55:00
5:15 PM,57.2,53.6,88,30.20,10.0,West,12.7,19.6,N/A,Thunderstorm,Thunderstorm,260,2013-09-09 23:15:00
5:35 PM,55.4,53.6,94,30.22,10.0,SSW,5.8,-,N/A,Rain-Thunderstorm,Thunderstorms and Rain,200,2013-09-09 23:35:00
5:55 PM,53.6,53.6,100,30.22,5.0,WSW,6.9,-,0.05,Rain-Thunderstorm,Light Thunderstorms and Rain,240,2013-09-09 23:55:00
6:15 PM,53.6,53.6,100,30.24,5.0,SW,6.9,-,0.01,Rain-Thunderstorm,Thunderstorms and Rain,230,2013-09-10 00:15:00
6:35 PM,53.6,53.6,100,30.23,4.0,SSW,4.6,-,0.05,Rain-Thunderstorm,Light Thunderstorms and Rain,200,2013-09-10 00:35:00
6:55 PM,53.6,53.6,100,30.23,4.0,WSW,6.9,-,0.08,Rain,Light Rain,250,2013-09-10 00:55:00
7:15 PM,51.8,51.8,100,30.24,1.0,West,5.8,-,0.01,Thunderstorm,Overcast,270,2013-09-10 01:15:00
7:35 PM,51.8,51.8,100,30.25,1.5,WNW,6.9,-,0.11,Rain-Thunderstorm,Thunderstorms and Rain,290,2013-09-10 01:35:00
7:55 PM,51.8,51.8,100,30.26,10.0,Calm,Calm,-,0.11,Rain-Thunderstorm,Thunderstorms and Rain,0,2013-09-10 01:55:00
8:15 PM,51.8,51.8,100,30.26,0.8,SW,3.5,-,0.03,Rain,Light Rain,220,2013-09-10 02:15:00
8:35 PM,51.8,51.8,100,30.25,2.0,Calm,Calm,-,0.04,Rain,Light Rain,0,2013-09-10 02:35:00
8:55 PM,51.8,51.8,100,30.25,0.8,Calm,Calm,-,0.04,Rain,Light Rain,0,2013-09-10 02:55:00
9:15 PM,51.8,51.8,100,30.26,0.5,Calm,Calm,-,0.01,Rain-Thunderstorm,Light Thunderstorms and Rain,0,2013-09-10 03:15:00
9:35 PM,51.8,51.8,100,30.27,7.0,Calm,Calm,-,0.01,,Overcast,0,2013-09-10 03:35:00
9:55 PM,51.8,51.8,100,30.29,0.2,West,3.5,-,0.01,Fog,Fog,270,2013-09-10 03:55:00
10:15 PM,51.8,51.8,100,30.28,5.0,Calm,Calm,-,N/A,,Light Drizzle,0,2013-09-10 04:15:00
10:35 PM,51.8,51.8,100,30.28,5.0,Calm,Calm,-,N/A,Rain,Light Rain,0,2013-09-10 04:35:00
10:55 PM,51.8,51.8,100,30.26,5.0,SE,6.9,-,0.02,Rain,Light Rain,140,2013-09-10 04:55:00
11:15 PM,51.8,51.8,100,30.28,10.0,SW,3.5,-,N/A,,Overcast,220,2013-09-10 05:15:00
11:35 PM,50.0,50.0,100,30.28,10.0,Calm,Calm,-,N/A,Rain,Light Rain,0,2013-09-10 05:35:00
11:55 PM,50.0,50.0,100,30.26,10.0,Calm,Calm,-,N/A,,Drizzle,0,2013-09-10 05:55:00